CYGFM01
Last updated on Sun Jun 21 2026 00:02:47 GMT+0000 (Coordinated Universal Time)
1 41887U 16078D 26171.30905894 .00020338 00000+0 26751-3 0 9994
2 41887 34.9389 240.9472 0007062 175.8238 184.2546 15.57471223529196
Next 0 passes for location: London (51.5072 / 0.1276)
No passes found over London.